Kemmerer, WY

4:07 PM MST on November 20, 2017 (GMT -0700)
Kemmerer Municipal

Weather History for KEMM - October, 2013

Change the Weather History Date:

Monday, October 28, 2013

  Actual Average Record
Temperature  
Mean Temperature 43 °F -  
Max Temperature 53 °F 50 °F 67 °F (1968)
Min Temperature 33 °F 21 °F 3 °F (1984)
Degree Days  
Heating Degree Days 22    
Moisture  
Dew Point 32 °F    
Average Humidity 73    
Maximum Humidity 100    
Minimum Humidity 30    
Precipitation  
Precipitation 0.03 in - - ()
Sea Level Pressure  
Sea Level Pressure 29.73 in    
Wind  
Wind Speed 15 mph (East)    
Max Wind Speed 30 mph    
Max Gust Speed 38 mph    
Visibility 10 miles    
Events Rain , Snow    
Averages and records for this station are not official NWS values.
T = Trace of Precipitation, MM = Missing Value Source: NWS Daily Summary

Daily Weather History Graph

Daily Weather History Graph

Search for Another Location

Airport or City:

Trip Planner

Search our weather history database for the weather conditions in past years. The results will help you decide how hot, cold, wet, or windy it might be!

Date:

Astronomy

Oct. 28, 2013 Rise Set
Actual Time 7:50 AM MDT 6:21 PM MDT
Civil Twilight 7:21 AM MDT 6:49 PM MDT
Nautical Twilight 6:48 AM MDT 7:22 PM MDT
Astronomical Twilight 6:16 AM MDT 7:54 PM MDT
Moon 1:41 AM MDT (10/28) 3:09 PM MDT (10/28)
Length of Visible Light 11h 28m
Length of Day
10h 31m
Waning Crescent, 33% of the Moon is Illuminated
Oct 28
Waning Crescent
Nov 3
New
Nov 9
First Quarter
Nov 17
Full
Nov 25
Last Quarter

Hourly Weather History & Observations

Time (MDT) Temp. Windchill Dew Point Humidity Pressure Visibility Wind Dir Wind Speed Gust Speed Precip Events Conditions
12:15 AM 44.6 °F 42.2 °F 21.2 °F 39% 29.82 in 10.0 mi SSE 4.6 mph - N/A   Overcast
12:55 AM 44.6 °F 40.2 °F 26.6 °F 49% 29.82 in 10.0 mi ESE 8.1 mph - N/A   Light Drizzle
1:15 AM 41.0 °F 30.9 °F 33.8 °F 76% 29.84 in 7.0 mi SE 24.2 mph 32.2 mph N/A Rain Rain
1:35 AM 39.2 °F 34.2 °F 33.8 °F 81% 29.82 in 10.0 mi East 6.9 mph 19.6 mph 0.02 in Rain Light Rain
2:15 AM 41.0 °F 35.2 °F 33.8 °F 76% 29.81 in 10.0 mi SE 9.2 mph - N/A   Light Drizzle
2:35 AM 41.0 °F 35.2 °F 33.8 °F 76% 29.81 in 10.0 mi SE 9.2 mph - N/A   Overcast
2:55 AM 41.0 °F 35.8 °F 33.8 °F 76% 29.83 in 10.0 mi SE 8.1 mph - N/A   Overcast
3:15 AM 39.2 °F 33.0 °F 35.6 °F 87% 29.80 in 7.0 mi East 9.2 mph - 0.01 in Rain Light Rain
3:35 AM 37.4 °F 31.4 °F 35.6 °F 93% 29.79 in 10.0 mi ESE 8.1 mph - 0.01 in   Overcast
3:55 AM 37.4 °F 29.8 °F 35.6 °F 93% 29.78 in 10.0 mi East 11.5 mph 17.3 mph 0.01 in   Scattered Clouds
4:15 AM 37.4 °F 31.4 °F 33.8 °F 87% 29.78 in 10.0 mi ENE 8.1 mph - N/A   Scattered Clouds
4:35 AM 37.4 °F 33.8 °F 33.8 °F 87% 29.78 in 10.0 mi East 4.6 mph - N/A   Scattered Clouds
5:15 AM 37.4 °F 34.9 °F 33.8 °F 87% 29.76 in 10.0 mi ENE 3.5 mph - N/A   Scattered Clouds
5:35 AM 37.4 °F 30.3 °F 33.8 °F 87% 29.76 in 10.0 mi ENE 10.4 mph - N/A   Mostly Cloudy
5:55 AM 39.2 °F 30.5 °F 33.8 °F 81% 29.76 in 10.0 mi East 16.1 mph - N/A   Mostly Cloudy
6:15 AM 37.4 °F 27.5 °F 33.8 °F 87% 29.76 in 10.0 mi ENE 18.4 mph 23.0 mph N/A   Overcast
6:35 AM 37.4 °F 26.1 °F 32.0 °F 81% 29.75 in 10.0 mi ENE 24.2 mph 29.9 mph N/A   Mostly Cloudy
6:55 AM 37.4 °F 26.9 °F 32.0 °F 81% 29.75 in 10.0 mi ENE 20.7 mph 29.9 mph N/A   Scattered Clouds
7:15 AM 35.6 °F 25.2 °F 32.0 °F 87% 29.75 in 10.0 mi ENE 18.4 mph 28.8 mph N/A   Scattered Clouds
7:55 AM 35.6 °F 24.5 °F 32.0 °F 87% 29.74 in 10.0 mi ENE 20.7 mph 28.8 mph N/A   Mostly Cloudy
8:15 AM 37.4 °F 27.2 °F 32.0 °F 81% 29.74 in 10.0 mi ENE 19.6 mph 26.5 mph N/A   Overcast
8:35 AM 35.6 °F 24.5 °F 33.8 °F 93% 29.75 in 10.0 mi ENE 20.7 mph 29.9 mph N/A   Overcast
8:55 AM 37.4 °F 26.4 °F 33.8 °F 87% 29.75 in 10.0 mi East 23.0 mph 31.1 mph N/A   Mostly Cloudy
9:15 AM 37.4 °F 25.9 °F 33.8 °F 87% 29.75 in 10.0 mi East 25.3 mph 32.2 mph N/A   Scattered Clouds
9:35 AM 37.4 °F 25.6 °F 33.8 °F 87% 29.75 in 10.0 mi East 26.5 mph 32.2 mph N/A   Clear
9:55 AM 39.2 °F 27.8 °F 33.8 °F 81% 29.74 in 10.0 mi East 27.6 mph 36.8 mph N/A   Clear
10:15 AM 39.2 °F 28.3 °F 33.8 °F 81% 29.73 in 10.0 mi East 25.3 mph 33.4 mph N/A   Scattered Clouds
10:35 AM 39.2 °F 27.6 °F 33.8 °F 81% 29.72 in 10.0 mi East 28.8 mph 33.4 mph N/A   Clear
10:55 AM 41.0 °F 30.5 °F 33.8 °F 76% 29.71 in 10.0 mi East 26.5 mph 31.1 mph N/A   Clear
11:15 AM 42.8 °F 33.1 °F 33.8 °F 70% 29.71 in 10.0 mi East 25.3 mph 31.1 mph N/A   Clear
11:35 AM 44.6 °F 35.5 °F 33.8 °F 66% 29.71 in 10.0 mi East 25.3 mph 29.9 mph N/A   Clear
11:55 AM 46.4 °F 39.0 °F 33.8 °F 62% 29.70 in 10.0 mi East 19.6 mph 27.6 mph N/A   Clear
12:15 PM 50.0 °F - 33.8 °F 54% 29.69 in 10.0 mi East 23.0 mph 31.1 mph N/A   Scattered Clouds
12:35 PM 46.4 °F 38.3 °F 32.0 °F 57% 29.68 in 10.0 mi East 23.0 mph 29.9 mph N/A   Scattered Clouds
12:55 PM 48.2 °F - 32.0 °F 54% 29.67 in 10.0 mi East 23.0 mph 31.1 mph N/A   Scattered Clouds
1:15 PM 48.2 °F - 32.0 °F 54% 29.66 in 10.0 mi East 28.8 mph 34.5 mph N/A   Mostly Cloudy
1:35 PM 46.4 °F 39.0 °F 32.0 °F 57% 29.66 in 10.0 mi ESE 19.6 mph 31.1 mph N/A   Overcast
1:55 PM 51.8 °F - 26.6 °F 38% 29.65 in 10.0 mi ESE 24.2 mph 34.5 mph N/A   Mostly Cloudy
2:15 PM 51.8 °F - 24.8 °F 35% 29.65 in 10.0 mi ESE 21.9 mph 29.9 mph N/A   Scattered Clouds
2:35 PM 51.8 °F - 23.0 °F 33% 29.64 in 10.0 mi ESE 24.2 mph 33.4 mph N/A   Mostly Cloudy
2:55 PM 53.6 °F - 23.0 °F 30% 29.63 in 10.0 mi East 19.6 mph 32.2 mph N/A   Mostly Cloudy
3:15 PM 48.2 °F - 32.0 °F 54% 29.61 in 10.0 mi East 25.3 mph 34.5 mph N/A   Mostly Cloudy
3:35 PM 46.4 °F 37.9 °F 32.0 °F 57% 29.61 in 10.0 mi ENE 25.3 mph 35.7 mph N/A   Mostly Cloudy
3:55 PM 44.6 °F 34.7 °F 32.0 °F 61% 29.60 in 10.0 mi East 29.9 mph 36.8 mph N/A   Overcast
4:15 PM 42.8 °F 32.9 °F 32.0 °F 66% 29.61 in 10.0 mi ENE 26.5 mph 31.1 mph N/A   Overcast
4:35 PM 42.8 °F 33.8 °F 30.2 °F 61% 29.61 in 10.0 mi East 21.9 mph 29.9 mph N/A   Overcast
4:55 PM 42.8 °F 34.0 °F 30.2 °F 61% 29.63 in 10.0 mi East 20.7 mph 34.5 mph N/A   Overcast
5:15 PM 42.8 °F 36.2 °F 30.2 °F 61% 29.69 in 10.0 mi SW 12.7 mph 31.1 mph N/A   Overcast
5:35 PM 39.2 °F 29.3 °F 32.0 °F 75% 29.70 in 10.0 mi West 20.7 mph 38.0 mph N/A   Light Drizzle
5:55 PM 37.4 °F 28.5 °F 32.0 °F 81% 29.72 in 10.0 mi WNW 15.0 mph 24.2 mph N/A   Overcast
6:15 PM 37.4 °F 28.9 °F 33.8 °F 87% 29.74 in 10.0 mi West 13.8 mph 19.6 mph N/A   Overcast
6:35 PM 35.6 °F 25.9 °F 32.0 °F 87% 29.76 in 10.0 mi WSW 16.1 mph 19.6 mph N/A   Overcast
7:15 PM 35.6 °F 29.2 °F 32.0 °F 87% 29.77 in 10.0 mi North 8.1 mph - N/A   Overcast
7:35 PM 35.6 °F 29.2 °F 32.0 °F 87% 29.77 in 10.0 mi NNW 8.1 mph - N/A   Overcast
7:55 PM 33.8 °F 26.4 °F 32.0 °F 93% 29.77 in 10.0 mi NNW 9.2 mph - N/A Rain Light Rain
8:15 PM 33.8 °F 26.4 °F 33.8 °F 100% 29.78 in 10.0 mi NW 9.2 mph - N/A   Light Drizzle
8:35 PM 33.8 °F 28.6 °F 33.8 °F 100% 29.79 in 10.0 mi NNW 5.8 mph - N/A Snow Light Snow